DECAYED

STARLINK-3096, 49131 (Decayed)

Orbit data source: Space-Track

STARLINK-3096, 49131 was a payload satellite owned by SpaceX/Seattle (US) in LEO that was launched on Tue, 14 Sep 2021 UTC via an FALCON 9 launch vehicle from the Air Force Western Test Range (AFWTR). Payload-class satellites include a variety of spacecraft equipped with specific instruments for various scientific and technological missions. These include communications satellites like Starlink; space stations such as the ISS; scientific satellites like the Hubble; Earth observation satellites from companies like Planet Labs, Umbra, and HawkEye 360; GPS; miniature CubeSats for education and research; and military/defense satellites.

Not visible in the next 10 days
Identifier
49131, 2021-082B
Orbit
Decayed
Country
Flag of USUS
Related business
Manufacturer
SpaceX/Seattle
Mission
Decayed Commercial Communications
Bus & Motor
STARLINK, Unknown motor
Mass
297 kg wet, ~275 kg dry
Launch date (UTC)
2021-09-14 (5 years ago)
Launch vehicle
FALCON 9
Launch site
Air Force Western Test Range (AFWTR)
Object type
Payload
Rocket body
Debris
Shape & HBR
Box + 1 Pan, 10.1 m
Radar Cross Section
13.562 m², Large (>1 m²)

Expand to show TLE details & history
Last TLE update: 3 weeks ago

TLE from 3 weeks ago
0 STARLINK-3096
1 49131U 21082B   26140.37285163  .12062930  44495-5  13042-3 0  9996
2 49131  69.9867  49.9223 0013907 243.6688 116.3121 16.49671095258289
Epoch: 2026-05-20T08:56Z
TLE epoch observation values (Epoch: 2026-05-20T08:56:54.380Z)
Latitude
0.00003°
Longitude
37.66239°
Altitude
146.814 km
Speed
7.816 km/s
True Right ascension
03h 19m 41s
True Declination
0° 00' 00"
Sunlit
Object was in daylight at epoch
Visualization orbit readout
Latitude
Unknown
Longitude
Unknown
Altitude
Unknown
Speed
Unknown
Apparent Right ascension
Unknown
Apparent Declination
Unknown
Sunlit
N/A
Visualization observer readout
Local Sidereal Time
01:36:42
Azimuth
Unknown
Elevation
Unknown
Doppler factor
Unknown
Orbital elements
Apogee altitude
147.077 km
Perigee altitude
128.953 km
Semi-major axis
6,516.152 km
Eccentricity
0.00139
Inclination
69.9867°
RAAN
49.9223°
Arg. of periapsis
243.6688°
True anomaly
116.45484°
Mean anomaly
116.3121°
Eccentric anomaly
116.38348°
Mean motion
4.12626 °/min
Orbital period
87.25 mins
BSTAR
0.00013042
Loading maneuver chart data...
Computing Atmospheric mass density...
Loading historical data...
Loading historical data...
Loading historical data...
Loading historical data...
Loading historical data...
Loading historical data...
Loading historical data...

Documentation

Showing up to 5 results
|